Skip Page Navigation
NASA JPL Caltech
NASA Logo - Jet Propulsion Laboratory + View the NASA Portal
+ Center for Near-Earth Object Studies
JPL Home Earth Solar System Stars & Galaxies Technology
JPL Solar System Dynamics
BODIES ORBITS EPHEMERIDES TOOLS PHYSICAL DATA DISCOVERY FAQ SITE MAP
JPL Small-Body Database Browser
Search: [ help ]  
344087 (1999 CA130)
Classification: Main-belt Asteroid          SPK-ID: 2344087
Ephemeris | Orbit Diagram | Orbital Elements | Mission Design | Physical Parameters | Discovery Circumstances ]

[ show orbit diagram ]
Orbital Elements at Epoch 2459000.5 (2020-May-31.0) TDB
Reference: JPL 9 (heliocentric ecliptic J2000)
 Element Value Uncertainty (1-sigma)   Units 
e .09433314189252102 4.7697e-08  
a 2.34411622013856 1.5277e-08 au
q 2.122988372131669 1.1749e-07 au
i 6.609914605982099 5.1404e-06 deg
node 110.8687353370761 5.651e-05 deg
peri 353.2566864469045 7.119e-05 deg
M 357.5511155870787 4.0921e-05 deg
tp 2459009.417290666070
(2020-Jun-08.91729067)
0.00014902 TDB
period 1310.892675394056
3.59
1.2815e-05
3.509e-08
d
yr
n .2746220241804186 2.6846e-09 deg/d
Q 2.565244068145451 1.6718e-08 au
  Orbit Determination Parameters
   # obs. used (total)      130  
   data-arc span      7590 days (20.78 yr)  
   first obs. used      1999-01-19  
   last obs. used      2019-10-31  
   planetary ephem.      DE431  
   SB-pert. ephem.      SB431-N16  
   condition code      0  
   norm. resid. RMS      .54685  
   source      ORB  
   producer      Otto Matic  
   solution date      2019-Nov-08 10:23:09  

Additional Information
 Earth MOID = 1.13999 au 
 Jupiter MOID = 2.53283 au 
 T_jup = 3.547 
[ show covariance matrix ]

Ephemeris | Orbit Diagram | Orbital Elements | Mission Design | Physical Parameters | Discovery Circumstances ]

Physical Parameter Table
Parameter Symbol Value Units Sigma Reference Notes
absolute magnitude H 17.7   n/a MPO418775  

344087 (1999 CA130)          Discovered 1999-Feb-06 by Veillet, C. at Mauna Kea
Reference: 20121128/Numbers.arcLast Updated: 2012-12-03
Ephemeris | Orbit Diagram | Orbital Elements | Mission Design | Physical Parameters | Discovery Circumstances ]
ABOUT SSD CREDITS/AWARDS PRIVACY/COPYRIGHT GLOSSARY LINKS
FirstGov 2020-Aug-08 07:29 UT
(server date/time)  
NASA Home Page
Site Manager:   Ryan S. Park
Webmaster  Alan B. Chamberlin